| time (UTC) | temp F | wind direction | speed MPH | gust MPH | rain 1hr in | rain 24hr in | rain mn in | humidity % | barometer mb |
| 20260506221839 | 85 | 120 | 3.0 | 10.0 | 0.00 | 0.00 | 0.00 | 24 | 1017.1 |
| 20260506221439 | 85 | 186 | 8.0 | 9.0 | 0.00 | 0.00 | 0.00 | 24 | 1017.0 |
| 20260506220635 | 83 | 200 | 4.0 | 9.0 | 0.00 | 0.00 | 0.00 | 24 | 1017.1 |
| 20260506220234 | 84 | 168 | 2.0 | 9.0 | 0.00 | 0.00 | 0.00 | 24 | 1017.1 |
| 20260506215032 | 85 | 160 | 5.0 | 9.0 | 0.00 | 0.00 | 0.00 | 25 | 1017.3 |
| 20260506214629 | 85 | 45 | 3.0 | 6.0 | 0.00 | 0.00 | 0.00 | 25 | 1017.3 |
| 20260506213827 | 85 | 177 | 7.0 | 8.0 | 0.00 | 0.00 | 0.00 | 25 | 1017.4 |
| 20260506213425 | 85 | 157 | 2.0 | 5.0 | 0.00 | 0.00 | 0.00 | 24 | 1017.5 |
| 20260506213024 | 85 | 210 | 2.0 | 7.0 | 0.00 | 0.00 | 0.00 | 24 | 1017.5 |
| 20260506212623 | 85 | 154 | 1.0 | 12.0 | 0.00 | 0.00 | 0.00 | 26 | 1017.6 |
| 20260506212221 | 85 | 157 | 5.0 | 8.0 | 0.00 | 0.00 | 0.00 | 26 | 1017.6 |
| 20260506211420 | 85 | 150 | 7.0 | 9.0 | 0.00 | 0.00 | 0.00 | 26 | 1017.6 |
| 20260506211017 | 85 | 209 | 1.0 | 7.0 | 0.00 | 0.00 | 0.00 | 26 | 1017.7 |
| 20260506210617 | 85 | 145 | 3.0 | 0.0 | 0.00 | 0.00 | 0.00 | 1017.7 | |
| 20260506210217 | 85 | 207 | 6.0 | 8.0 | 0.00 | 0.00 | 0.00 | 26 | 1017.7 |
| 20260506205412 | 85 | 157 | 4.0 | 8.0 | 0.00 | 0.00 | 0.00 | 26 | 1017.8 |
| 20260506205011 | 85 | 0 | 3.0 | 9.0 | 0.00 | 0.00 | 0.00 | 26 | 1017.8 |
| 20260506204610 | 84 | 137 | 6.0 | 8.0 | 0.00 | 0.00 | 0.00 | 26 | 1017.8 |
| 20260506204209 | 84 | 163 | 5.0 | 10.0 | 0.00 | 0.00 | 0.00 | 27 | 1017.9 |
| 20260506203807 | 84 | 135 | 10.0 | 10.0 | 0.00 | 0.00 | 0.00 | 27 | 1017.9 |
| 20260506202603 | 85 | 135 | 6.0 | 7.0 | 0.00 | 0.00 | 0.00 | 27 | 1017.9 |
| 20260506202203 | 84 | 182 | 5.0 | 7.0 | 0.00 | 0.00 | 0.00 | 27 | 1018.0 |
| 20260506201400 | 82 | 132 | 7.0 | 7.0 | 0.00 | 0.00 | 0.00 | 27 | 1018.2 |
| 20260506200958 | 81 | 186 | 5.0 | 12.0 | 0.00 | 0.00 | 0.00 | 27 | 1018.3 |
| 20260506200155 | 80 | 160 | 1.0 | 11.0 | 0.00 | 0.00 | 0.00 | 27 | 1018.3 |
| 20260506195754 | 78 | 135 | 4.0 | 12.0 | 0.00 | 0.00 | 0.00 | 27 | 1018.4 |
| 20260506195358 | 79 | 85 | 10.0 | 11.0 | 0.00 | 0.00 | 0.00 | 27 | 1018.3 |
| 20260506194550 | 78 | 135 | 10.0 | 18.0 | 0.00 | 0.00 | 0.00 | 27 | 1018.3 |
| 20260506194149 | 78 | 135 | 10.0 | 10.0 | 0.00 | 0.00 | 0.00 | 27 | 1018.4 |
| 20260506193748 | 78 | 146 | 11.0 | 12.0 | 0.00 | 0.00 | 0.00 | 27 | 1018.4 |
| 20260506193347 | 79 | 137 | 6.0 | 16.0 | 0.00 | 0.00 | 0.00 | 26 | 1018.5 |
| 20260506192143 | 83 | 117 | 6.0 | 11.0 | 0.00 | 0.00 | 0.00 | 26 | 1018.6 |
| 20260506191745 | 84 | 135 | 6.0 | 7.0 | 0.00 | 0.00 | 0.00 | 25 | 1018.5 |
| 20260506190939 | 85 | 270 | 3.0 | 4.0 | 0.00 | 0.00 | 0.00 | 26 | 1018.8 |
| 20260506190539 | 84 | 174 | 1.0 | 6.0 | 0.00 | 0.00 | 0.00 | 26 | 1018.8 |
| 20260506190136 | 84 | 216 | 4.0 | 6.0 | 0.00 | 0.00 | 0.00 | 26 | 1018.8 |
| 20260506185734 | 81 | 270 | 4.0 | 4.0 | 0.00 | 0.00 | 0.00 | 26 | 1018.8 |
| 20260506184531 | 82 | 41 | 4.0 | 6.0 | 0.00 | 0.00 | 0.00 | 26 | 1018.8 |
| 20260506183729 | 84 | 279 | 6.0 | 8.0 | 0.00 | 0.00 | 0.00 | 26 | 1018.9 |
| 20260506183327 | 83 | 245 | 3.0 | 11.0 | 0.00 | 0.00 | 0.00 | 26 | 1018.9 |
| 20260506182926 | 82 | 270 | 3.0 | 8.0 | 0.00 | 0.00 | 0.00 | 27 | 1019.0 |
| 20260506182525 | 81 | 90 | 2.0 | 9.0 | 0.00 | 0.00 | 0.00 | 27 | 1018.9 |
| 20260506182124 | 80 | 153 | 7.0 | 9.0 | 0.00 | 0.00 | 0.00 | 27 | 1019.0 |
| 20260506180521 | 79 | 236 | 4.0 | 7.0 | 0.00 | 0.00 | 0.00 | 27 | 1019.0 |
| 20260506180120 | 77 | 267 | 7.0 | 9.0 | 0.00 | 0.00 | 0.00 | 27 | 1019.1 |
| 20260506175716 | 75 | 292 | 8.0 | 10.0 | 0.00 | 0.00 | 0.00 | 27 | 1019.1 |
| 20260506175318 | 76 | 6 | 9.0 | 10.0 | 0.00 | 0.00 | 0.00 | 27 | 1019.1 |
| 20260506174515 | 76 | 40 | 1.0 | 9.0 | 0.00 | 0.00 | 0.00 | 28 | 1019.2 |
| 20260506173709 | 74 | 28 | 5.0 | 10.0 | 0.00 | 0.00 | 0.00 | 28 | 1019.3 |
| 20260506173313 | 74 | 28 | 4.0 | 10.0 | 0.00 | 0.00 | 0.00 | 28 | 1019.2 |
| 20260506173311 | 74 | 28 | 4.0 | 10.0 | 0.00 | 0.00 | 0.00 | 28 | 1019.2 |
| 20260506172907 | 74 | 25 | 3.0 | 8.0 | 0.00 | 0.00 | 0.00 | 28 | 1019.2 |
| 20260506172506 | 75 | 182 | 1.0 | 3.0 | 0.00 | 0.00 | 0.00 | 29 | 1019.2 |
| 20260506172107 | 75 | 355 | 4.0 | 7.0 | 0.00 | 0.00 | 0.00 | 29 | 1019.1 |
| 20260506171301 | 78 | 140 | 3.0 | 3.0 | 0.00 | 0.00 | 0.00 | 30 | 1019.1 |
| 20260506170900 | 78 | 182 | 0.0 | 2.0 | 0.00 | 0.00 | 0.00 | 30 | 1019.2 |
| 20260506170503 | 78 | 299 | 1.0 | 2.0 | 0.00 | 0.00 | 0.00 | 31 | 1019.2 |
| 20260506165656 | 76 | 249 | 3.0 | 3.0 | 0.00 | 0.00 | 0.00 | 32 | 1019.1 |
| 20260506165256 | 76 | 310 | 0.0 | 3.0 | 0.00 | 0.00 | 0.00 | 33 | 1019.0 |
| 20260506163658 | 73 | 27 | 3.0 | 4.0 | 0.00 | 0.00 | 0.00 | 35 | 1019.1 |
| 20260506163251 | 73 | 81 | 3.0 | 5.0 | 0.00 | 0.00 | 0.00 | 35 | 1019.1 |
| 20260506162854 | 73 | 121 | 4.0 | 5.0 | 0.00 | 0.00 | 0.00 | 36 | 1019.1 |
| 20260506162446 | 72 | 177 | 1.0 | 5.0 | 0.00 | 0.00 | 0.00 | 37 | 1019.1 |
| 20260506162058 | 71 | 135 | 4.0 | 7.0 | 0.00 | 0.00 | 0.00 | 37 | 1019.1 |
| 20260506161649 | 72 | 135 | 7.0 | 7.0 | 0.00 | 0.00 | 0.00 | 38 | 1019.1 |
| 20260506160842 | 72 | 211 | 1.0 | 5.0 | 0.00 | 0.00 | 0.00 | 40 | 1019.2 |
| 20260506160441 | 72 | 122 | 3.0 | 3.0 | 0.00 | 0.00 | 0.00 | 40 | 1019.2 |
| 20260506155637 | 70 | 150 | 1.0 | 5.0 | 0.00 | 0.00 | 0.00 | 42 | 1019.3 |
| 20260506155237 | 70 | 135 | 3.0 | 3.0 | 0.00 | 0.00 | 0.00 | 43 | 1019.3 |
| 20260506154835 | 69 | 300 | 0.0 | 4.0 | 0.00 | 0.00 | 0.00 | 44 | 1019.2 |
| 20260506154512 | 68 | 339 | 1.0 | 3.0 | 0.00 | 0.00 | 0.00 | 45 | 1019.3 |
| 20260506154433 | 68 | 339 | 1.0 | 3.0 | 0.00 | 0.00 | 0.00 | 45 | 1019.3 |
| 20260506154032 | 67 | 135 | 1.0 | 5.0 | 0.00 | 0.00 | 0.00 | 45 | 1019.4 |
| 20260506153631 | 67 | 117 | 5.0 | 5.0 | 0.00 | 0.00 | 0.00 | 46 | 1019.3 |
| 20260506153229 | 67 | 109 | 0.0 | 3.0 | 0.00 | 0.00 | 0.00 | 47 | 1019.4 |
| 20260506152427 | 67 | 182 | 0.0 | 1.0 | 0.00 | 0.00 | 0.00 | 49 | 1019.4 |
| 20260506152025 | 67 | 135 | 2.0 | 3.0 | 0.00 | 0.00 | 0.00 | 50 | 1019.5 |
| 20260506151223 | 66 | 112 | 1.0 | 2.0 | 0.00 | 0.00 | 0.00 | 52 | 1019.5 |
| 20260506151016 | 66 | 321 | 0.0 | 1.0 | 0.00 | 0.00 | 0.00 | 52 | 1019.5 |
| 20260506150822 | 66 | 321 | 0.0 | 1.0 | 0.00 | 0.00 | 0.00 | 52 | 1019.5 |
| 20260506150424 | 65 | 78 | 0.0 | 1.0 | 0.00 | 0.00 | 0.00 | 53 | 1019.5 |
| 20260506145617 | 64 | 225 | 0.0 | 1.0 | 0.00 | 0.00 | 0.00 | 54 | 1019.4 |
| 20260506145218 | 63 | 232 | 0.0 | 1.0 | 0.00 | 0.00 | 0.00 | 55 | 1019.5 |
| 20260506144046 | 60 | 315 | 0.0 | 0.0 | 0.00 | 0.00 | 0.00 | 56 | 1019.5 |
| 20260506144013 | 60 | 315 | 0.0 | 0.0 | 0.00 | 0.00 | 0.00 | 56 | 1019.5 |
| 20260506143613 | 59 | 166 | 0.0 | 0.0 | 0.00 | 0.00 | 0.00 | 57 | 1019.5 |
| 20260506142808 | 58 | 310 | 0.0 | 0.0 | 0.00 | 0.00 | 0.00 | 58 | 1019.5 |
| 20260506142411 | 57 | 279 | 0.0 | 1.0 | 0.00 | 0.00 | 0.00 | 58 | 1019.5 |
| 20260506142006 | 56 | 288 | 1.0 | 1.0 | 0.00 | 0.00 | 0.00 | 58 | 1019.4 |
| 20260506141605 | 54 | 279 | 0.0 | 1.0 | 0.00 | 0.00 | 0.00 | 58 | 1019.5 |
| 20260506141204 | 53 | 297 | 0.0 | 1.0 | 0.00 | 0.00 | 0.00 | 58 | 1019.4 |
| 20260506140802 | 52 | 30 | 1.0 | 1.0 | 0.00 | 0.00 | 0.00 | 58 | 1019.3 |
| 20260506140000 | 51 | 42 | 0.0 | 0.0 | 0.00 | 0.00 | 0.00 | 59 | 1019.1 |
| 20260506135157 | 50 | 270 | 0.0 | 0.0 | 0.00 | 0.00 | 0.00 | 59 | 1019.2 |
| 20260506134756 | 49 | 283 | 0.0 | 0.0 | 0.00 | 0.00 | 0.00 | 59 | 1019.1 |
| 20260506134355 | 49 | 270 | 0.0 | 0.0 | 0.00 | 0.00 | 0.00 | 59 | 1019.0 |
| 20260506133552 | 47 | 274 | 0.0 | 0.0 | 0.00 | 0.00 | 0.00 | 59 | 1019.1 |
| 20260506131946 | 45 | 279 | 0.0 | 0.0 | 0.00 | 0.00 | 0.00 | 59 | 1019.0 |
| 20260506131545 | 44 | 303 | 0.0 | 0.0 | 0.00 | 0.00 | 0.00 | 59 | 1019.0 |
| 20260506130743 | 44 | 235 | 0.0 | 0.0 | 0.00 | 0.00 | 0.00 | 58 | 1018.8 |
| 20260506130343 | 45 | 135 | 0.0 | 0.0 | 0.00 | 0.00 | 0.00 | 58 | 1018.8 |
| 20260506125942 | 45 | 202 | 0.0 | 0.0 | 0.00 | 0.00 | 0.00 | 58 | 1018.7 |
| 20260506125539 | 710 | 234 | 0.0 | 1.0 | 0.00 | 0.00 | 0.00 | 58 | 1018.6 |
| 20260506124335 | 44 | 324 | 0.0 | 2.0 | 0.00 | 0.00 | 0.00 | 58 | 1018.8 |
| 20260506123938 | 44 | 346 | 2.0 | 2.0 | 0.00 | 0.00 | 0.00 | 58 | 1018.8 |
| 20260506123535 | 45 | 312 | 0.0 | 0.0 | 0.00 | 0.00 | 0.00 | 58 | 1018.6 |
| 20260506123332 | 45 | 308 | 0.0 | 0.0 | 0.00 | 0.00 | 0.00 | 58 | 1018.6 |
| 20260506123131 | 45 | 308 | 0.0 | 0.0 | 0.00 | 0.00 | 0.00 | 58 | 1018.6 |
| 20260506122730 | 45 | 288 | 0.0 | 0.0 | 0.00 | 0.00 | 0.00 | 58 | 1018.6 |
| 20260506122330 | 45 | 81 | 0.0 | 0.0 | 0.00 | 0.00 | 0.00 | 58 | 1018.5 |
| 20260506121930 | 46 | 216 | 0.0 | 0.0 | 0.00 | 0.00 | 0.00 | 58 | 1.0 |
| 20260506121529 | 46 | 237 | 0.0 | 0.0 | 0.00 | 0.00 | 0.00 | 58 | 1018.4 |
| 20260506120723 | 46 | 180 | 0.0 | 0.0 | 0.00 | 0.00 | 0.00 | 58 | 1018.4 |
| 20260506120322 | 45 | 182 | 0.0 | 1.0 | 0.00 | 0.00 | 0.00 | 58 | 1018.4 |
| 20260506115921 | 45 | 227 | 0.0 | 1.0 | 0.00 | 0.00 | 0.00 | 58 | 1018.4 |
| 20260506115520 | 45 | 274 | 0.0 | 1.0 | 0.00 | 0.00 | 0.00 | 58 | 1018.5 |
| 20260506115119 | 45 | 337 | 0.0 | 1.0 | 0.00 | 0.00 | 0.00 | 58 | 1018.4 |
| 20260506114719 | 46 | 337 | 0.0 | 0.0 | 0.00 | 0.00 | 0.00 | 58 | 1018.3 |
| 20260506114316 | 45 | 274 | 0.0 | 0.0 | 0.00 | 0.00 | 0.00 | 58 | 1018.3 |
| 20260506113915 | 45 | 274 | 0.0 | 0.0 | 0.00 | 0.00 | 0.00 | 58 | 1018.3 |
| 20260506113513 | 46 | 274 | 0.0 | 0.0 | 0.00 | 0.00 | 0.00 | 58 | 1018.2 |
| 20260506113112 | 46 | 306 | 0.0 | 0.0 | 0.00 | 0.00 | 0.00 | 58 | 1018.3 |
| 20260506112711 | 46 | 315 | 0.0 | 0.0 | 0.00 | 0.00 | 0.00 | 58 | 1018.3 |
| 20260506112310 | 46 | 306 | 0.0 | 0.0 | 0.00 | 0.00 | 0.00 | 58 | 1018.2 |
| 20260506111908 | 46 | 42 | 0.0 | 0.0 | 0.00 | 0.00 | 0.00 | 58 | 1018.2 |
| 20260506111541 | 46 | 42 | 0.0 | 0.0 | 0.00 | 0.00 | 0.00 | 58 | 1018.3 |
| 20260506111507 | 46 | 42 | 0.0 | 0.0 | 0.00 | 0.00 | 0.00 | 58 | 1018.3 |
| 20260506111142 | 46 | 310 | 0.0 | 0.0 | 0.00 | 0.00 | 0.00 | 58 | 1018.3 |
| 20260506111106 | 46 | 310 | 0.0 | 0.0 | 0.00 | 0.00 | 0.00 | 58 | 1018.3 |
| 20260506110705 | 46 | 301 | 0.0 | 0.0 | 0.00 | 0.00 | 0.00 | 58 | 1018.3 |
| 20260506110303 | 46 | 228 | 0.0 | 0.0 | 0.00 | 0.00 | 0.00 | 58 | 1018.3 |
| 20260506105902 | 46 | 231 | 0.0 | 0.0 | 0.00 | 0.00 | 0.00 | 58 | 1018.3 |
| 20260506105500 | 46 | 342 | 0.0 | 0.0 | 0.00 | 0.00 | 0.00 | 57 | 1018.4 |
| 20260506104658 | 46 | 232 | 0.0 | 0.0 | 0.00 | 0.00 | 0.00 | 57 | 1018.3 |
| 20260506104257 | 46 | 227 | 0.0 | 0.0 | 0.00 | 0.00 | 0.00 | 57 | 1018.3 |
| 20260506103856 | 46 | 230 | 0.0 | 0.0 | 0.00 | 0.00 | 0.00 | 57 | 1018.3 |
| 20260506103053 | 46 | 306 | 0.0 | 0.0 | 0.00 | 0.00 | 0.00 | 57 | 1018.3 |
| 20260506102651 | 46 | 306 | 0.0 | 0.0 | 0.00 | 0.00 | 0.00 | 57 | 1018.4 |
| 20260506102250 | 47 | 306 | 0.0 | 0.0 | 0.00 | 0.00 | 0.00 | 57 | 1018.4 |
| 20260506101451 | 47 | 315 | 0.0 | 0.0 | 0.00 | 0.00 | 0.00 | 57 | 1018.3 |
| 20260506100645 | 47 | 315 | 0.0 | 0.0 | 0.00 | 0.00 | 0.00 | 57 | 1018.3 |
| 20260506100244 | 48 | 274 | 0.0 | 0.0 | 0.00 | 0.00 | 0.00 | 57 | 1018.3 |
| 20260506095843 | 48 | 231 | 0.0 | 0.0 | 0.00 | 0.00 | 0.00 | 57 | 1018.3 |
| 20260506095442 | 48 | 232 | 0.0 | 0.0 | 0.00 | 0.00 | 0.00 | 57 | 1018.3 |
| 20260506095040 | 48 | 315 | 0.0 | 0.0 | 0.00 | 0.00 | 0.00 | 57 | 1018.3 |
| 20260506094639 | 48 | 279 | 0.0 | 1.0 | 0.00 | 0.00 | 0.00 | 57 | 1018.3 |
| 20260506093839 | 48 | 274 | 0.0 | 0.0 | 0.00 | 0.00 | 0.00 | 57 | 1018.6 |
| 20260506092633 | 48 | 335 | 0.0 | 0.0 | 0.00 | 0.00 | 0.00 | 57 | 1018.5 |
| 20260506092233 | 48 | 353 | 0.0 | 0.0 | 0.00 | 0.00 | 0.00 | 57 | 1018.5 |
| 20260506091829 | 48 | 310 | 0.0 | 0.0 | 0.00 | 0.00 | 0.00 | 56 | 1018.4 |
| 20260506091428 | 48 | 279 | 0.0 | 0.0 | 0.00 | 0.00 | 0.00 | 56 | 1018.4 |
| 20260506090626 | 48 | 306 | 0.0 | 1.0 | 0.00 | 0.00 | 0.00 | 56 | 1018.6 |
| 20260506090225 | 48 | 312 | 0.0 | 0.0 | 0.00 | 0.00 | 0.00 | 56 | 1018.6 |
| 20260506085827 | 49 | 274 | 0.0 | 0.0 | 0.00 | 0.00 | 0.00 | 56 | 1018.5 |
| 20260506085423 | 49 | 279 | 0.0 | 0.0 | 0.00 | 0.00 | 0.00 | 56 | 1018.6 |
| 20260506085021 | 49 | 274 | 0.0 | 0.0 | 0.00 | 0.00 | 0.00 | 56 | 1018.6 |
| 20260506084620 | 49 | 283 | 0.0 | 0.0 | 0.00 | 0.00 | 0.00 | 56 | 1018.7 |
| 20260506084218 | 49 | 283 | 0.0 | 0.0 | 0.00 | 0.00 | 0.00 | 56 | 1018.7 |
| 20260506083817 | 49 | 234 | 0.0 | 1.0 | 0.00 | 0.00 | 0.00 | 56 | 1018.8 |
| 20260506083416 | 49 | 301 | 0.0 | 0.0 | 0.00 | 0.00 | 0.00 | 56 | 1018.8 |
| 20260506083014 | 49 | 310 | 0.0 | 0.0 | 0.00 | 0.00 | 0.00 | 56 | 1018.9 |
| 20260506082613 | 49 | 310 | 0.0 | 1.0 | 0.00 | 0.00 | 0.00 | 56 | 1018.8 |
| 20260506081410 | 49 | 233 | 0.0 | 1.0 | 0.00 | 0.00 | 0.00 | 56 | 1018.8 |
| 20260506080205 | 49 | 274 | 0.0 | 0.0 | 0.00 | 0.00 | 0.00 | 56 | 1018.8 |
| 20260506073358 | 49 | 270 | 0.0 | 0.0 | 0.00 | 0.00 | 0.00 | 55 | 1018.9 |
| 20260506072555 | 49 | 298 | 0.0 | 0.0 | 0.00 | 0.00 | 0.00 | 55 | 1018.9 |
| 20260506071751 | 50 | 270 | 0.0 | 0.0 | 0.00 | 0.00 | 0.00 | 55 | 1018.8 |
| 20260506071350 | 50 | 274 | 0.0 | 0.0 | 0.00 | 0.00 | 0.00 | 55 | 1018.7 |
| 20260506070949 | 50 | 306 | 0.0 | 0.0 | 0.00 | 0.00 | 0.00 | 55 | 1018.7 |
| 20260506070548 | 50 | 310 | 0.0 | 0.0 | 0.00 | 0.00 | 0.00 | 54 | 1018.7 |
| 20260506061331 | 52 | 283 | 0.0 | 1.0 | 0.00 | 0.00 | 0.00 | 53 | 1018.1 |
| 20260506060930 | 52 | 227 | 0.0 | 0.0 | 0.00 | 0.00 | 0.00 | 53 | 1018.2 |
| 20260506060127 | 52 | 135 | 0.0 | 1.0 | 0.00 | 0.00 | 0.00 | 53 | 1018.1 |
| 20260506051311 | 54 | 227 | 0.0 | 0.0 | 0.00 | 0.00 | 0.00 | 51 | 1017.8 |
| 20260506050910 | 54 | 225 | 0.0 | 0.0 | 0.00 | 0.00 | 0.00 | 51 | 1017.7 |
| 20260506044904 | 55 | 182 | 0.0 | 0.0 | 0.00 | 0.00 | 0.00 | 50 | 1017.5 |
| 20260506044503 | 55 | 182 | 0.0 | 0.0 | 0.00 | 0.00 | 0.00 | 50 | 1017.5 |
| 20260506044101 | 55 | 45 | 0.0 | 0.0 | 0.00 | 0.00 | 0.00 | 50 | 1017.5 |
| 20260506043700 | 55 | 45 | 0.0 | 1.0 | 0.00 | 0.00 | 0.00 | 49 | 1017.5 |
| 20260506043259 | 55 | 45 | 1.0 | 1.0 | 0.00 | 0.00 | 0.00 | 49 | 1017.3 |
| 20260506042857 | 56 | 85 | 0.0 | 0.0 | 0.00 | 0.00 | 0.00 | 49 | 1017.2 |
| 20260506042503 | 55 | 45 | 0.0 | 1.0 | 0.00 | 0.00 | 0.00 | 49 | 1017.2 |
| 20260506042057 | 56 | 42 | 0.0 | 1.0 | 0.00 | 0.00 | 0.00 | 49 | 1017.1 |
| 20260506041654 | 56 | 45 | 0.0 | 1.0 | 0.00 | 0.00 | 0.00 | 48 | 1017.1 |
| 20260506041253 | 57 | 135 | 0.0 | 1.0 | 0.00 | 0.00 | 0.00 | 48 | 1017.0 |
| 20260506040451 | 57 | 78 | 0.0 | 1.0 | 0.00 | 0.00 | 0.00 | 48 | 1016.9 |
| 20260506040048 | 57 | 346 | 0.0 | 0.0 | 0.00 | 0.00 | 0.00 | 48 | 1016.9 |
| 20260506035246 | 58 | 306 | 0.0 | 0.0 | 0.00 | 0.00 | 0.00 | 47 | 1016.8 |
| 20260506034956 | 58 | 274 | 0.0 | 1.0 | 0.00 | 0.00 | 0.00 | 47 | 1016.8 |
| 20260506034845 | 58 | 274 | 0.0 | 1.0 | 0.00 | 0.00 | 0.00 | 47 | 1016.8 |
| 20260506034444 | 58 | 135 | 1.0 | 2.0 | 0.00 | 0.00 | 0.00 | 47 | 1016.7 |
| 20260506032838 | 58 | 283 | 1.0 | 1.0 | 0.00 | 0.00 | 0.00 | 45 | 1016.6 |
| 20260506032036 | 58 | 83 | 2.0 | 2.0 | 0.00 | 0.00 | 0.00 | 45 | 1016.4 |
| 20260506031634 | 59 | 83 | 1.0 | 2.0 | 0.00 | 0.00 | 0.00 | 45 | 1016.3 |
| 20260506030833 | 59 | 27 | 1.0 | 1.0 | 0.00 | 0.00 | 0.00 | 44 | 1016.1 |
| 20260506030431 | 59 | 315 | 0.0 | 1.0 | 0.00 | 0.00 | 0.00 | 43 | 1016.1 |
| 20260506030032 | 59 | 277 | 0.0 | 3.0 | 0.00 | 0.00 | 0.00 | 43 | 1016.0 |
| 20260506025628 | 60 | 135 | 2.0 | 3.0 | 0.00 | 0.00 | 0.00 | 43 | 1016.0 |
| 20260506025226 | 60 | 135 | 2.0 | 3.0 | 0.00 | 0.00 | 0.00 | 42 | 1016.0 |
| 20260506024825 | 60 | 130 | 3.0 | 5.0 | 0.00 | 0.00 | 0.00 | 42 | 1015.9 |
| 20260506024424 | 60 | 108 | 3.0 | 6.0 | 0.00 | 0.00 | 0.00 | 42 | 1015.7 |
| 20260506024023 | 60 | 83 | 5.0 | 8.0 | 0.00 | 0.00 | 0.00 | 41 | 1015.8 |
| 20260506022824 | 61 | 135 | 1.0 | 3.0 | 0.00 | 0.00 | 0.00 | 41 | 1015.7 |
| 20260506022417 | 61 | 85 | 3.0 | 3.0 | 0.00 | 0.00 | 0.00 | 40 | 1015.5 |
| 20260506022020 | 61 | 135 | 3.0 | 5.0 | 0.00 | 0.00 | 0.00 | 40 | 1015.6 |
| 20260506021615 | 61 | 128 | 5.0 | 6.0 | 0.00 | 0.00 | 0.00 | 40 | 1015.4 |
| 20260506021214 | 62 | 85 | 5.0 | 5.0 | 0.00 | 0.00 | 0.00 | 40 | 1015.4 |
| 20260506020813 | 62 | 135 | 4.0 | 4.0 | 0.00 | 0.00 | 0.00 | 39 | 1015.3 |
| 20260506020411 | 62 | 87 | 3.0 | 5.0 | 0.00 | 0.00 | 0.00 | 39 | 1015.4 |
| 20260506015207 | 62 | 112 | 3.0 | 6.0 | 0.00 | 0.00 | 0.00 | 38 | 1015.3 |
| 20260506014806 | 63 | 135 | 4.0 | 4.0 | 0.00 | 0.00 | 0.00 | 38 | 1015.3 |
| 20260506014405 | 63 | 155 | 3.0 | 6.0 | 0.00 | 0.00 | 0.00 | 38 | 1015.3 |
| 20260506014003 | 63 | 114 | 4.0 | 7.0 | 0.00 | 0.00 | 0.00 | 37 | 1015.2 |
| 20260506013201 | 64 | 117 | 4.0 | 6.0 | 0.00 | 0.00 | 0.00 | 37 | 1015.1 |
| 20260506012359 | 65 | 110 | 4.0 | 6.0 | 0.00 | 0.00 | 0.00 | 37 | 1015.1 |
| 20260506011957 | 65 | 148 | 4.0 | 6.0 | 0.00 | 0.00 | 0.00 | 36 | 1015.1 |
| 20260506011556 | 65 | 123 | 1.0 | 6.0 | 0.00 | 0.00 | 0.00 | 36 | 1015.0 |
| 20260506011154 | 65 | 157 | 3.0 | 5.0 | 0.00 | 0.00 | 0.00 | 36 | 1015.1 |
| 20260506010753 | 65 | 144 | 4.0 | 7.0 | 0.00 | 0.00 | 0.00 | 36 | 1015.1 |
| 20260506005951 | 66 | 132 | 6.0 | 6.0 | 0.00 | 0.00 | 0.00 | 36 | 1015.1 |
| 20260506005550 | 66 | 123 | 3.0 | 7.0 | 0.00 | 0.00 | 0.00 | 35 | 1015.1 |
| 20260506004821 | 67 | 135 | 3.0 | 5.0 | 0.00 | 0.00 | 0.00 | 35 | 1015.0 |
| 20260506004747 | 67 | 135 | 3.0 | 5.0 | 0.00 | 0.00 | 0.00 | 35 | 1015.0 |
| 20260506003543 | 68 | 183 | 1.0 | 3.0 | 0.00 | 0.00 | 0.00 | 35 | 1014.9 |
| 20260506003142 | 68 | 213 | 2.0 | 4.0 | 0.00 | 0.00 | 0.00 | 35 | 1014.9 |
| 20260506002339 | 68 | 180 | 3.0 | 3.0 | 0.00 | 0.00 | 0.00 | 34 | 1014.9 |
| 20260506001135 | 69 | 185 | 1.0 | 5.0 | 0.00 | 0.00 | 0.00 | 34 | 1014.7 |
| 20260506000734 | 69 | 195 | 1.0 | 7.0 | 0.00 | 0.00 | 0.00 | 34 | 1014.7 |
| 20260505235931 | 69 | 135 | 1.0 | 6.0 | 0.00 | 0.00 | 0.00 | 33 | 1014.7 |
| 20260505235532 | 69 | 193 | 1.0 | 6.0 | 0.00 | 0.00 | 0.00 | 33 | 1014.7 |
| 20260505234728 | 69 | 184 | 1.0 | 3.0 | 0.00 | 0.00 | 0.00 | 33 | 1014.8 |
| 20260505233929 | 69 | 139 | 2.0 | 7.0 | 0.00 | 0.00 | 0.00 | 32 | 1014.8 |
| 20260505233123 | 69 | 171 | 6.0 | 6.0 | 0.00 | 0.00 | 0.00 | 32 | 1015.0 |
| 20260505232721 | 69 | 171 | 4.0 | 9.0 | 0.00 | 0.00 | 0.00 | 31 | 1014.8 |
| 20260505232320 | 69 | 220 | 6.0 | 10.0 | 0.00 | 0.00 | 0.00 | 31 | 1014.8 |
| 20260505231920 | 69 | 182 | 4.0 | 9.0 | 0.00 | 0.00 | 0.00 | 31 | 1014.9 |
| 20260505231518 | 70 | 183 | 7.0 | 12.0 | 0.00 | 0.00 | 0.00 | 31 | 1014.7 |
| 20260505231116 | 70 | 211 | 2.0 | 12.0 | 0.00 | 0.00 | 0.00 | 31 | 1014.7 |
| 20260505230715 | 70 | 186 | 10.0 | 12.0 | 0.00 | 0.00 | 0.00 | 31 | 1014.8 |
| 20260505230313 | 71 | 209 | 4.0 | 13.0 | 0.00 | 0.00 | 0.00 | 31 | 1014.9 |
| 20260505225912 | 72 | 180 | 8.0 | 11.0 | 0.00 | 0.00 | 0.00 | 31 | 1014.9 |
| 20260505225109 | 72 | 199 | 5.0 | 10.0 | 0.00 | 0.00 | 0.00 | 31 | 1014.9 |
| 20260505224708 | 71 | 210 | 10.0 | 14.0 | 0.00 | 0.00 | 0.00 | 30 | 1014.9 |
| 20260505224307 | 71 | 182 | 8.0 | 12.0 | 0.00 | 0.00 | 0.00 | 30 | 1015.0 |
| 20260505223906 | 71 | 198 | 8.0 | 10.0 | 0.00 | 0.00 | 0.00 | 30 | 1015.0 |
| 20260505223103 | 70 | 232 | 3.0 | 7.0 | 0.00 | 0.00 | 0.00 | 29 | 1015.0 |
| 20260505222701 | 70 | 202 | 4.0 | 9.0 | 0.00 | 0.00 | 0.00 | 28 | 1015.1 |
| 20260505222300 | 71 | 196 | 3.0 | 9.0 | 0.00 | 0.00 | 0.00 | 28 | 1015.1 |